Change the Weather History Date:

Sunday, June 30, 2013

  Actual Average Record
Temperature  
Mean Temperature 69 °F 68 °F  
Max Temperature 78 °F 77 °F 97 °F (1933)
Min Temperature 60 °F 59 °F 43 °F (1923)
Degree Days  
Heating Degree Days 0 1  
Month to date heating degree days 79  
Since 1 June heating degree days 79  
Since 1 July heating degree days 6688  
Cooling Degree Days 4 4  
Month to date cooling degree days 75  
Year to date cooling degree days 93  
Since 1 June cooling degree days 75  
Growing Degree Days 19 (Base 50)    
Moisture  
Dew Point 60 °F    
Average Humidity 77    
Maximum Humidity 93    
Minimum Humidity 52    
Precipitation  
Precipitation 0.00 in 0.11 in 1.14 in (1902)
Month to date precipitation  
Year to date precipitation  
Sea Level Pressure  
Sea Level Pressure 29.81 in    
Wind  
Wind Speed 5 mph (SE)    
Max Wind Speed 21 mph    
Max Gust Speed 25 mph    
Visibility 10 miles    
Events Rain , Thunderstorm    
T = Trace of Precipitation, MM = Missing Value Source: NWS Daily Summary

Daily Weather History Graph

Daily Weather History Graph

Search for Another Location

Airport or City:

Trip Planner

Search our weather history database for the weather conditions in past years. The results will help you decide how hot, cold, wet, or windy it might be!

Date:

Astronomy

Jun. 30, 2013 Rise Set
Actual Time 5:48 AM EDT 8:49 PM EDT
Civil Twilight 5:15 AM EDT 9:22 PM EDT
Nautical Twilight 4:34 AM EDT 10:03 PM EDT
Astronomical Twilight 3:45 AM EDT 10:52 PM EDT
Moon 12:47 AM EDT (6/30) 2:01 PM EDT (6/30)
Length of Visible Light 16h 06m
Length of Day
15h 00m
Last Quarter, 45% of the Moon is Illuminated
Jun 30
Last Quarter
Jul 8
New
Jul 15
First Quarter
Jul 22
Full
Jul 29
Last Quarter

Hourly Weather History & Observations

Time (EDT) Temp. Dew Point Humidity Pressure Visibility Wind Dir Wind Speed Gust Speed Precip Events Conditions
12:54 AM 61.0 °F 57.0 °F 87% 29.73 in 10.0 mi Calm Calm - N/A   Clear
1:54 AM 61.0 °F 57.0 °F 87% 29.75 in 10.0 mi South 4.6 mph - N/A   Clear
2:54 AM 61.0 °F 57.0 °F 87% 29.75 in 10.0 mi South 5.8 mph - N/A   Clear
3:54 AM 61.0 °F 57.0 °F 87% 29.74 in 10.0 mi South 4.6 mph - 0.00 in Rain Light Rain
4:54 AM 61.0 °F 57.0 °F 87% 29.75 in 10.0 mi Calm Calm - N/A   Partly Cloudy
5:54 AM 60.1 °F 57.0 °F 90% 29.77 in 10.0 mi WSW 3.5 mph - N/A   Scattered Clouds
6:54 AM 62.1 °F 57.9 °F 86% 29.78 in 10.0 mi Calm Calm - N/A   Clear
7:54 AM 66.0 °F 59.0 °F 78% 29.79 in 10.0 mi South 3.5 mph - N/A   Clear
8:54 AM 68.0 °F 59.0 °F 73% 29.80 in 10.0 mi South 3.5 mph - N/A   Clear
9:54 AM 68.0 °F 61.0 °F 78% 29.81 in 10.0 mi Calm Calm - N/A   Scattered Clouds
10:54 AM 73.0 °F 62.1 °F 68% 29.81 in 10.0 mi SW 5.8 mph - N/A   Clear
11:54 AM 75.0 °F 57.9 °F 55% 29.81 in 10.0 mi ESE 4.6 mph - N/A   Scattered Clouds
12:54 PM 77.0 °F 57.9 °F 52% 29.81 in 10.0 mi WSW 8.1 mph - N/A   Partly Cloudy
1:54 PM 77.0 °F 60.1 °F 56% 29.79 in 10.0 mi SSE 10.4 mph - N/A   Scattered Clouds
2:54 PM 78.1 °F 61.0 °F 56% 29.78 in 10.0 mi South 11.5 mph - 0.00 in   Mostly Cloudy
3:54 PM 75.9 °F 61.0 °F 60% 29.80 in 10.0 mi Variable 5.8 mph - N/A   Partly Cloudy
4:54 PM 73.0 °F 62.1 °F 68% 29.81 in 10.0 mi NNE 5.8 mph - N/A   Mostly Cloudy
5:02 PM 73.4 °F 62.6 °F 69% 29.84 in 10.0 mi North 4.6 mph - N/A Thunderstorm Overcast
5:20 PM 66.2 °F 60.8 °F 83% 29.86 in 10.0 mi NNW 20.7 mph 25.3 mph 0.00 in Rain , Thunderstorm Light Rain
5:28 PM 68.0 °F 60.8 °F 78% 29.85 in 10.0 mi NNW 18.4 mph 25.3 mph 0.00 in   Mostly Cloudy
5:54 PM 68.0 °F 59.0 °F 73% 29.83 in 10.0 mi North 11.5 mph - 0.00 in   Mostly Cloudy
6:54 PM 68.0 °F 57.9 °F 70% 29.84 in 10.0 mi NNE 8.1 mph - N/A   Mostly Cloudy
7:54 PM 66.0 °F 61.0 °F 84% 29.86 in 10.0 mi ENE 4.6 mph - N/A   Clear
8:54 PM 64.9 °F 61.0 °F 87% 29.86 in 10.0 mi ENE 4.6 mph - N/A   Partly Cloudy
9:54 PM 64.0 °F 62.1 °F 93% 29.88 in 9.0 mi East 3.5 mph - N/A   Overcast
10:54 PM 64.9 °F 62.1 °F 90% 29.88 in 10.0 mi ENE 4.6 mph - N/A   Overcast
11:54 PM 64.9 °F 62.1 °F 90% 29.88 in 10.0 mi Calm Calm - N/A   Scattered Clouds